{"data":{"norad_id":63080,"intl_designator":"2025-037D","name":"STARLINK-32906","alt_names":[],"object_type":"PAYLOAD","status":"ACTIVE","operator":null,"country":"US","launch_date":"2025-02-23","launch_site_code":"AFWTR","launch_vehicle":null,"mission":null,"orbit_class":"UNKNOWN","rcs_meters":null,"size_class":null,"mass_kg":null,"dimensions":null,"purposes":["comms"],"wikipedia_slug":null,"has_3d_model":false,"image_url":null,"decayed_at":null,"tle_current":{"epoch":"2026-05-25T02:31:06.985344Z","epoch_age_seconds":72907,"freshness":"FRESH","line1":"1 63080U 25037D   26145.10494196  .00005284  00000+0  45027-3 0  9995","line2":"2 63080  70.0001 161.9689 0003126 268.0466  92.0335 14.98330778 70044","mean_motion":14.98330778,"eccentricity":0.0003126,"inclination_deg":70.0001,"raan_deg":161.9689,"arg_perigee_deg":268.0466,"mean_anomaly_deg":92.0335,"bstar":0.00045027,"rev_number":7004,"period_min":96.106949222664,"perigee_km":569.88085549901,"apogee_km":574.22611459026,"semimajor_km":6950.1904850446,"source":"CELESTRAK","updated_at":"2026-05-25T13:38:19.877333Z"}}}